Regional Weather Roundup
Issued by NWS Bismarck, ND

Home | Current Version | Previous Version | Text Only | Print | Product List | Glossary On
Versions: 1 2 3 4 5 6 7 8 9 10 11 12 13 14 15 16 17 18 19 20 21 22 23 24 25 26 27 28 29 30 31 32 33 34 35 36 37 38 39 40 41 42 43 44 45 46 47 48 49 50
000
ASUS43 KBIS 210720
RWRBIS

NWR BROADCAST TEXT
NATIONAL WEATHER SERVICE BISMARCK ND
200 AM CDT TUE OCT 21 2014

NOTE: "FAIR" INDICATES FEW OR NO CLOUDS BELOW 12,000 FEET WITH NO
SIGNIFICANT WEATHER AND/OR OBSTRUCTIONS TO VISIBILITY.


CITY           SKY/WX    TMP DP  RH WIND       PRES   REMARKS
WILLISTON      CLEAR     50  40  68 CALM      29.80F
MINOT          CLEAR     45  34  65 E9        29.86F
MINOT AFB      CLEAR     44  37  74 SE10      29.86S
BISMARCK       CLEAR     54  35  48 E13       29.90F
DICKINSON      CLEAR     48  37  65 S12       29.82F
GARRISON         N/A     51  36  56 CALM      29.88S
HETTINGER ARPT CLEAR     47  38  71 SE8       29.85F
JAMESTOWN      CLEAR     46  39  76 SE9       29.99S
BEACH            N/A     46  41  81 SE9       29.81F
CARRINGTON     FAIR      41  41 100 SE13      29.98F
CROSBY         FAIR      48  43  81 S12       29.80S
HARVEY         FAIR      48  37  66 SE10      29.93S
HAZEN          FAIR      55  32  41 SE17G25   29.85
LINTON         FAIR      52  36  54 SE18G25   29.90F
MANDAN         FAIR      54  34  47 E12G18    29.90F
OAKES            N/A     39  37  93 E7        30.02R
RUGBY          FAIR      46  39  76 SE12      29.92F
STANLEY        FAIR      48  39  71 SE6       29.85S
TIOGA          FAIR      41  41 100 E6        29.86S
$$

CITY           SKY/WX    TMP DP  RH WIND       PRES   REMARKS
GRAND FORKS    CLEAR     41  37  86 SE9       30.05S
GRAND FORKS AF CLEAR     39  38  97 S6        30.05S
DEVILS LAKE    CLEAR     46  37  71 SE14G21   29.97S
FARGO          CLEAR     45  38  76 SE12      30.05R
CANDO          FAIR      45  41  87 SE13      29.97S
CAVALIER       FAIR      41  37  87 S8        30.04S
GRAFTON        FAIR      37  36  93 SE8       30.05S
GWINNER        SUNNY     45  37  76 SE9       30.04S
LANGDON        FAIR      43  37  81 SE18      29.99F
ROLLA          FAIR      43  41  93 S13       29.96S
WALHALLA       FAIR      45  41  87 S13       30.03S
$$

CITY           SKY/WX    TMP DP  RH WIND       PRES   REMARKS
ABERDEEN       CLEAR     43  37  79 SE6       30.01R
MOBRIDGE       CLEAR     57  36  45 SE14      29.88F
BUFFALO          N/A     53  41  63 CALM      29.77F
RAPID CITY     CLEAR     53  42  66 SE5       29.87S
GLASGOW        CLEAR     49  37  63 E13       29.72S
SIDNEY         CLEAR     46  43  87 CALM      29.79F
WOLF POINT     CLEAR     45  38  76 CALM      29.75S
GLENDIVE       CLEAR     46  39  76 CALM      29.79F
MILES CITY     CLEAR     56  43  61 SE6       29.76F
BAKER          CLEAR     45  40  82 E8        29.81F
$$

CITY           SKY/WX    TMP DP  RH WIND       PRES   REMARKS
BILLINGS       CLEAR     58  29  33 SW12      29.79S
GREAT FALLS    CLEAR     61  34  36 S15       29.68S
REGINA         CLEAR     46  41  81 SE14      29.73S
ESTEVAN        CLEAR     52  41  66 SE10      29.79S
$$



USA.gov is the U.S. government's official web portal to all federal, state and local government web resources and services.